Regional Weather Roundup
Issued by NWS Kansas City/Pleasant Hill, MO

Home | Current Version | Previous Version | Text Only | Print | Product List | Glossary On
Versions: 1 2 3 4 5 6 7 8 9 10 11 12 13 14 15 16 17 18 19 20 21 22 23 24 25 26 27 28 29 30 31 32 33 34 35 36 37 38 39 40 41 42 43 44 45 46 47 48 49 50
000
ASUS43 KEAX 271510
RWREAX

WEATHER ROUNDUP FOR EASTERN KANSAS AND NORTHWEST MISSOURI
NATIONAL WEATHER SERVICE KANSAS CITY/PLEASANT HILL MO
1000 AM CDT THU APR 27 2017

KSZ040-057-103>105-MOZ028-029-037-043-271600-
...KANSAS CITY METROPOLITAN AREA...

CITY           SKY/WX    TMP DP  RH WIND       PRES   REMARKS
K.C. INTL      MOSUNNY   50  34  54 W10G17    29.74R
K.C. DOWNTOWN  SUNNY     51  36  56 NW9G18    29.74S
LEES SUMMIT    SUNNY     49  35  58 W14       29.74S
OLATHE - IXD   SUNNY     49  35  58 NW13      29.75F
OLATHE - OJC   SUNNY     48  36  63 W8        29.74F
LAWRENCE       SUNNY     50  36  58 NW8       29.75F

$$

MOZ001>008-011>017-020>025-030>033-038>040-044>046-053-054-271600-
...NORTHERN AND CENTRAL MISSOURI...

CITY           SKY/WX    TMP DP  RH WIND       PRES   REMARKS
ST. JOSEPH     SUNNY     49  36  61 W9        29.74R
MOSBY          SUNNY     48  32  53 NW9       29.74S
WHITEMAN AFB   MOSUNNY   49  38  67 W12       29.74S
CLINTON        PTSUNNY   48  37  66 W7        29.78S
SEDALIA        CLOUDY    49  40  71 W13       29.77R
WARSAW         NOT AVBL
CHILLICOTHE      N/A     46  35  65 W8        29.74R
KIRKSVILLE     CLOUDY    43  34  70 W12       29.71R

$$

MOZ041-047>049-056>058-063>065-088>090-097-271600-
...EASTERN AND SOUTHERN MISSOURI...

CITY           SKY/WX    TMP DP  RH WIND       PRES   REMARKS
ST. LOUIS INTL CLOUDY    50  41  71 W13       29.72R
SPIRIT OF STL  CLOUDY    49  42  77 W13G21    29.72S
COLUMBIA       CLOUDY    46  38  73 W12       29.75R
JEFFERSON CITY CLOUDY    48  35  60 W9        29.77R
ROLLA          CLOUDY    45  39  79 W15       29.75R
OSAGE BEACH    CLOUDY    46  39  76 W9        29.79R
SPRINGFIELD    SUNNY     50  39  66 NW8       29.78R
BRANSON        MOSUNNY   48  39  71 W3        29.81R
JOPLIN         MOSUNNY   52  43  71 W10       29.81R
WEST PLAINS    CLOUDY    48  41  76 W9        29.79R

$$

IAZ060-094-KSZ022-034>040-054-083-096-NEZ052-066-093-271600-
...KANSAS...SOUTHEAST NEBRASKA AND IOWA...

CITY           SKY/WX    TMP DP  RH WIND       PRES   REMARKS
TOPEKA         SUNNY     50  36  58 W12       29.75F
MANHATTAN      SUNNY     49  35  58 SW5       29.78R
EMPORIA        SUNNY     48  36  63 VRB3      29.79R
CHANUTE        SUNNY     50  37  61 VRB5      29.81R
WICHITA        MOSUNNY   51  37  58 E7        29.76F
OMAHA          CLOUDY    40  31  70 NW9       29.73S WCI  34
LINCOLN        SUNNY     46  31  55 NW13      29.74S
FALLS CITY     SUNNY     47  34  60 W13       29.73R
LAMONI         CLOUDY    42  34  73 W15       29.70R WCI  34
DES MOINES     CLOUDY    39  30  70 NW18      29.67R WCI  30

$$




USA.gov is the U.S. government's official web portal to all federal, state and local government web resources and services.